Dewpoint
69 69 70 71 72 73 71 72 72 70 72 72 73 72 72 73 72 72 72 72 71 71 72 71 71 72 71 72 71 69 70 70 68 67 68 67 70 70 69 71 71 70 70
67 68 68 70 71 70 71 71 71 72 72 72 73 73 73 73 73 71 72 71 71 71 71 71 70 71 71 71 71 71 71 71 70 68 69 68 69 70 71 70 71 71 69
64 66 66 68 69 69 69 70 71 72 72 71 72 73 73 73 73 73 73 73 72 72 71 71 71 71 70 70 70 69 69 69 69 69 67 68 70 71 70 70 70 71 71
59 62 64 66 68 69 69 70 70 72 72 72 72 73 73 73 74 74 73 73 72 72 72 72 71 70 70 70 69 70 69 68 68 67 66 65 66 69 71 70 70 71 68
64 62 65 67 68 69 71 72 71 71 73 73 73 73 74 74 73 74 73 72 72 72 72 72 71 71 70 70 69 69 69 69 66 65 62 67 68 68 68 69 70 71 71
70 67 68 71 72 72 73 74 74 73 74 74 74 74 74 73 72 73 73 72 72 72 71 72 71 70 70 70 70 70 70 70 67 65 63 66 67 68 68 69 69 69 68
72 72 72 74 74 75 75 75 75 75 75 74 74 74 74 73 70 72 72 71 72 72 71 70 69 67 70 70 70 70 70 69 67 65 66 67 68 69 70 69 69 69 69
73 74 74 75 75 76 76 76 76 75 74 74 74 73 73 73 70 70 71 71 70 69 69 69 69 67 67 69 67 71 70 69 68 68 68 68 70 71 71 71 70 70 70
74 75 76 76 76 77 76 76 76 75 74 73 73 73 73 71 69 69 70 70 69 69 71 70 69 69 69 68 67 67 68 67 64 69 67 68 68 67 68 68 69 69 67
73 75 76 77 77 77 77 76 76 74 73 71 71 72 73 72 69 69 70 69 67 68 70 71 70 70 68 68 69 68 68 67 65 66 68 67 66 67 67 68 67 68 67
73 73 77 78 77 77 77 76 76 74 72 73 72 72 73 72 72 69 69 70 67 67 68 69 70 69 69 68 69 69 69 68 67 66 64 64 63 65 66 68 68 65 67
71 72 76 78 76 76 77 76 76 75 74 73 73 72 72 73 72 68 68 68 69 69 69 69 69 68 67 66 67 69 67 67 67 62 63 64 63 61 62 67 69 68 67
72 73 75 77 76 77 76 76 74 73 71 71 71 70 70 72 73 71 68 67 67 68 71 70 69 67 66 66 66 66 65 67 66 64 62 65 64 64 68 66 67 70 69
72 74 76 76 75 71 66 63 63 62 69 69 70 70 69 71 71 72 71 69 67 68 68 69 69 68 67 66 67 65 67 67 66 64 64 65 66 67 67 67 65 64 67
72 75 75 71 66 63 63 63 62 62 60 69 69 69 67 68 65 65 67 70 70 69 68 69 69 68 67 66 66 67 68 67 66 65 64 64 64 64 64 66 65 64 64
73 74 72 68 63 64 62 61 60 62 58 59 61 66 62 61 60 61 63 64 65 66 67 67 66 65 65 65 66 66 67 67 66 67 66 64 62 62 61 62 64 66 65
73 72 68 68 66 65 63 60 58 56 54 57 58 59 59 60 59 59 60 61 62 63 64 65 64 64 64 64 64 64 64 66 67 67 67 67 66 64 63 62 62 62 64
67 65 67 68 67 68 68 66 65 63 62 61 57 59 57 58 59 60 60 60 63 62 62 62 62 62 62 62 62 62 62 63 63 64 65 65 65 65 64 64 63 63 62
67 66 66 65 65 67 67 66 64 63 62 60 57 56 56 55 56 57 58 59 55 56 58 59 59 59 60 61 61 61 62 62 62 62 63 64 64 63 62 63 63 62 62
64 63 66 65 65 67 67 66 64 62 60 60 58 57 57 58 57 57 56 56 55 56 57 58 59 59 59 60 60 60 61 60 59 59 59 60 60 61 61 61 61 61 61
66 66 65 66 66 66 64 61 59 58 58 57 58 57 55 57 56 55 55 55 55 56 58 58 57 57 57 57 57 56 55 57 58 57 56 58 58 57 56 56 59 61 61
64 63 63 61 60 60 59 57 57 58 56 55 56 57 57 56 55 54 55 55 55 57 58 58 58 58 57 57 56 55 55 54 55 55 55 55 55 54 56 56 56 56 56
59 58 58 58 58 57 56 55 55 54 54 55 55 56 55 52 52 52 52 52 54 57 58 55 55 54 54 53 52 49 48 47 48 52 53 54 52 50 49 51 52 54 55
56 56 56 55 54 55 57 57 58 57 57 57 56 53 52 52 53 52 52 52 55 54 54 54 53 52 49 48 46 42 37 39 41 41 44 49 50 49 49 47 45 47 50
54 54 55 57 58 59 58 57 58 56 55 54 53 52 51 51 50 51 51 51 52 53 52 51 49 47 45 40 35 36 37 35 38 37 37 39 47 50 49 48 48 50 49
51 52 53 55 55 55 54 52 51 51 50 49 48 48 47 46 45 44 43 41 41 42 42 42 39 41 40 35 34 36 33 32 34 32 35 37 35 38 39 42 44 46 47
Wind_Speed
25 24 23 23 23 22 22 20 20 18 15 15 13 14 15 14 15 15 13 13 14 13 11 10 13 13 13 10 13 12 12 11 14 14 10 10 15 16 15 18 18 18 17
23 22 23 21 21 23 22 22 20 20 19 17 16 17 17 14 15 16 17 14 12 13 13 13 15 11 11 11 10 11 10 11 11 14 12 10 14 14 13 14 15 16 21
22 23 23 23 22 22 22 21 20 19 19 19 18 18 18 16 16 16 15 14 12 13 12 12 12 11 11 11 10 10 11 9 8 10 14 12 12 11 14 16 18 16 16
23 23 23 24 23 22 20 19 20 19 19 20 18 18 19 17 15 14 12 11 11 12 12 11 9 10 10 11 10 10 7 7 9 11 14 15 14 13 11 12 14 15 20
17 21 21 21 20 20 19 17 18 18 18 18 16 15 16 15 13 15 13 13 13 12 11 11 11 10 9 8 10 7 8 11 11 13 12 11 10 10 13 14 14 14 17
18 19 18 18 17 17 17 17 16 16 16 17 14 14 12 14 16 20 14 13 13 13 12 13 11 15 12 11 11 12 10 9 12 12 14 12 14 13 13 13 14 14 15
24 20 18 18 19 18 17 18 18 18 16 15 14 15 16 16 7 22 19 12 13 13 12 11 11 14 18 13 19 18 15 15 15 14 16 15 14 13 13 14 14 14 17
19 20 19 20 20 19 19 19 19 18 18 17 16 15 14 15 15 18 17 14 13 10 12 12 13 11 11 14 11 13 13 14 17 14 14 14 12 8 9 10 13 13 12
22 23 23 23 22 20 21 20 19 19 17 17 16 14 12 11 21 18 15 13 15 11 12 13 15 15 15 15 14 15 14 15 13 21 12 8 8 9 9 10 10 9 10
23 23 24 24 23 22 20 18 17 16 16 17 16 15 13 13 21 19 17 14 15 15 14 15 17 17 5 15 14 15 14 16 16 9 9 13 15 14 13 11 11 10 9
18 18 21 23 22 22 19 17 16 16 16 15 15 11 14 15 17 21 22 15 14 10 8 8 12 19 21 17 18 16 15 13 10 10 14 17 17 15 16 19 16 13 12
20 20 20 19 21 20 20 18 16 15 13 14 13 13 13 12 9 20 21 23 13 11 12 10 7 7 14 17 18 19 10 9 13 17 15 14 17 16 14 7 17 15 11
14 18 21 19 19 20 18 15 11 12 13 15 14 13 11 12 9 13 17 17 16 14 14 8 3 4 3 8 15 12 11 14 16 17 18 13 16 12 5 8 11 13 11
17 21 19 23 18 21 25 26 25 32 25 13 12 8 5 7 8 8 8 7 8 7 10 11 8 8 6 5 3 8 12 13 15 17 15 14 12 14 14 11 13 12 9
18 20 23 21 27 26 19 15 21 28 19 11 3 4 4 10 7 8 3 1 3 2 4 6 7 8 10 9 9 11 10 10 11 14 15 14 12 13 12 10 10 13 14
20 19 19 20 17 8 12 19 20 10 20 8 12 10 12 13 11 11 8 6 4 3 3 5 6 7 7 6 6 6 8 10 11 11 12 13 14 14 15 13 12 13 15
20 20 18 12 10 11 11 12 18 11 2 15 19 20 17 12 10 10 9 8 5 2 5 1 4 6 8 8 8 9 10 10 10 11 12 13 13 13 14 15 16 16 14
17 18 18 17 18 18 16 15 16 16 13 10 10 14 12 14 10 8 6 5 5 2 4 6 7 5 5 6 6 7 8 9 9 8 9 10 11 13 14 13 14 14 15
14 14 17 23 27 13 18 18 18 17 15 13 9 11 10 9 8 6 5 3 6 8 9 7 5 4 5 6 7 7 8 8 10 10 9 8 7 6 8 9 9 10 10
18 18 17 13 23 20 19 18 20 17 17 17 13 13 12 8 9 9 7 11 9 9 9 9 6 6 6 7 7 8 7 8 8 9 8 7 6 7 9 10 9 10 10
20 20 22 19 20 24 23 19 17 14 18 14 11 13 11 11 12 10 11 10 12 11 12 12 10 10 14 13 13 14 12 11 13 13 12 11 14 15 11 10 10 11 11
24 24 22 20 21 20 19 17 17 18 17 16 14 10 14 14 12 10 12 12 9 12 10 11 9 9 11 10 11 13 12 15 17 18 14 14 12 13 13 13 11 12 11
21 22 21 19 18 23 19 18 16 16 16 17 15 12 10 15 12 13 10 10 10 16 14 12 12 12 12 13 13 15 14 15 14 15 19 20 20 16 14 11 11 12 12
21 21 21 19 17 18 19 19 18 17 16 15 15 15 15 14 9 13 11 11 15 13 12 11 11 14 13 14 14 14 16 16 15 17 18 18 18 20 20 21 21 20 16
20 21 20 23 21 18 20 20 18 19 18 16 16 14 13 13 13 11 10 8 10 9 10 8 9 10 12 13 14 16 18 20 16 19 18 19 20 20 19 21 22 21 21
20 19 20 24 24 22 19 18 18 17 17 17 16 14 13 13 11 10 9 9 8 7 7 7 8 7 8 12 14 13 16 20 20 25 20 18 16 17 18 19 21 21 22
Wind_Direction
203 200 206 209 211 214 219 220 221 228 226 214 225 220 229 232 234 233 236 239 240 237 228 239 236 241 248 230 236 225 225 224 238 257 241 257 206 204 221 229 247 239 215
201 200 201 206 209 210 216 218 219 222 224 224 217 223 227 227 227 225 232 237 227 235 240 239 247 245 242 238 225 230 237 242 244 252 252 255 233 232 221 233 236 229 238
200 202 202 202 206 215 211 218 213 216 220 221 217 220 222 222 223 227 231 234 225 235 239 239 246 233 235 233 223 234 231 226 243 249 274 259 253 247 243 234 238 238 240
199 207 206 209 210 213 216 212 216 207 215 221 219 216 225 222 221 226 228 227 226 230 231 234 235 238 232 236 241 234 258 268 246 268 276 275 263 245 236 243 238 223 239
217 208 208 211 216 211 207 211 215 211 210 218 219 220 213 224 210 216 217 221 218 223 226 229 223 235 242 250 249 225 243 247 260 261 290 252 265 279 255 254 250 244 240
221 211 210 196 214 209 202 199 202 205 207 206 216 199 213 229 212 194 208 214 215 220 223 221 241 202 221 234 246 263 277 279 277 287 294 286 275 266 267 258 254 259 258
201 208 204 193 202 203 198 195 196 200 197 196 207 189 201 224 195 182 197 214 203 214 223 231 221 231 206 222 223 231 245 248 245 262 276 281 280 272 269 266 254 253 255
205 197 201 193 195 197 196 199 196 193 194 188 198 208 192 202 185 184 195 226 236 215 233 221 240 246 227 213 239 214 233 237 226 224 236 255 271 315 295 274 266 268 264
210 202 200 192 188 196 199 197 199 192 189 189 195 193 205 217 178 187 193 216 234 231 221 229 235 228 242 203 228 239 243 256 258 210 232 255 267 279 282 288 271 256 261
214 208 200 188 189 190 197 198 196 201 192 188 195 191 185 215 184 185 193 222 221 225 232 233 239 258 319 197 218 244 258 271 268 206 232 247 238 236 229 230 263 271 267
221 223 215 196 185 182 180 188 194 197 201 205 183 184 190 203 185 187 195 220 245 247 233 246 232 225 236 228 226 240 248 274 288 270 264 252 251 236 224 220 226 240 249
213 223 204 191 182 182 172 178 186 196 207 196 181 191 198 198 202 192 198 212 246 270 264 275 267 266 237 234 230 240 224 259 261 264 258 265 273 271 282 211 216 228 237
245 209 198 181 188 168 161 153 184 204 216 206 202 208 198 179 196 195 206 218 238 251 266 284 256 302 268 243 238 245 250 249 251 260 266 264 264 270 323 314 339 236 222
221 216 194 177 149 110 96 85 61 12 299 217 198 212 169 175 178 168 199 203 211 237 235 243 233 241 258 277 193 210 229 240 249 254 260 266 261 273 281 276 284 288 282
211 189 175 147 134 122 120 118 79 19 302 262 193 172 266 139 84 94 78 160 235 6 301 260 241 264 269 258 255 257 246 253 247 257 266 266 251 261 270 283 284 280 276
197 169 153 158 138 142 126 78 76 74 262 103 72 119 82 100 98 88 94 99 105 149 192 221 238 252 277 298 312 300 276 278 283 303 299 282 273 276 277 273 260 262 265
181 159 147 148 139 115 102 135 132 105 186 78 85 84 96 116 109 113 113 107 105 218 270 338 343 1 8 351 342 333 328 326 323 315 307 297 296 287 280 280 285 290 275
141 136 140 125 103 97 103 104 176 180 160 118 81 102 107 109 115 124 139 157 135 153 62 41 29 14 355 344 347 330 326 326 322 319 312 310 313 306 302 306 307 302 288
130 146 154 136 118 130 145 180 188 165 138 132 135 106 108 125 136 132 194 274 32 48 61 62 44 6 19 12 7 352 343 328 324 321 335 334 336 334 326 320 323 325 326
157 174 158 141 131 142 137 190 169 152 148 159 137 130 140 139 119 101 83 78 84 75 64 60 43 28 32 27 17 350 334 330 334 336 338 329 313 300 293 304 294 292 287
141 148 145 145 147 165 158 161 152 138 105 108 91 72 54 94 82 73 86 66 69 59 57 43 48 39 39 36 23 11 0 17 10 355 351 352 343 328 319 304 313 311 298
142 151 151 145 142 148 137 140 122 108 117 116 112 95 83 100 117 118 106 98 86 106 74 70 58 43 44 32 18 15 14 5 0 350 347 331 329 322 313 320 327 321 309
141 133 126 132 118 124 140 133 132 131 129 122 128 126 134 95 82 91 86 77 75 74 73 47 39 45 26 34 24 33 19 4 346 339 335 327 323 315 309 292 300 297 303
123 117 117 133 134 115 105 109 103 111 114 112 117 100 91 95 95 93 74 74 60 48 58 62 61 56 43 31 29 29 26 4 343 345 331 316 314 317 321 318 311 335 325
126 121 122 106 106 107 114 125 115 112 115 114 118 114 102 83 75 61 49 61 86 96 89 70 43 45 65 49 30 23 9 1 354 344 333 318 311 315 312 315 323 328 316
113 118 116 120 122 118 118 113 110 103 96 93 94 94 91 85 78 72 62 36 34 63 39 54 41 45 42 41 21 13 1 355 351 342 337 310 323 321 324 323 316 312 308